Location: Chuathbaluk
(61.5726°N, 159.2454°W)
Time: 14:12:34
(UTC+00:00)

NUDT-PHONESAT - Pass Details

Date: 20 January 2021
Orbit: 480 x 498 km, 97.4° (Epoch: 01 March)

Event Time Altitude Azimuth Distance (km) Brightness Sun altitude
Rises 18:21:05 0° 14° (NNE) 2,611 ? -7.1°
Reaches altitude 10° 18:23:13 10° 9° (N) 1,723 ? -6.9°
Maximum altitude 18:26:48 49° 294° (WNW) 660 ? -6.5°
Drops below altitude 10° 18:30:22 10° 220° (SW) 1,710 ? -6.1°
Sets 18:32:28 0° 215° (SW) 2,589 ? -5.9°
